TimeICT,TemperatureF,Dew PointF,Humidity,Sea Level PressureIn,VisibilityMPH,Wind Direction,Wind SpeedMPH,Gust SpeedMPH,PrecipitationIn,Events,Conditions,WindDirDegrees,DateUTC
12:00 AM,77.0,66.2,69,29.95,5.0,Calm,Calm,-,N/A,,Unknown,0,2014-02-21 17:00:00
1:00 AM,75.2,66.2,73,29.92,5.0,Calm,Calm,-,N/A,,Unknown,0,2014-02-21 18:00:00
7:00 AM,71.6,68.0,88,29.95,1.2,Calm,Calm,-,N/A,,Mist,0,2014-02-22 00:00:00
7:30 AM,71.6,68.0,88,29.95,1.2,Variable,1.2,-,N/A,,Mist,0,2014-02-22 00:30:00
8:00 AM,73.4,68.0,83,29.98,1.9,Variable,1.2,-,N/A,,Mist,0,2014-02-22 01:00:00
8:30 AM,77.0,66.2,69,29.98,1.9,Variable,1.2,-,N/A,,Mist,0,2014-02-22 01:30:00
9:00 AM,78.8,64.4,61,29.98,3.1,ESE,4.6,-,N/A,,Mist,110,2014-02-22 02:00:00
9:30 AM,80.6,64.4,58,29.98,3.1,ESE,8.1,-,N/A,,Mist,110,2014-02-22 02:30:00
10:00 AM,82.4,64.4,54,29.98,5.0,ESE,6.9,-,N/A,,Unknown,120,2014-02-22 03:00:00
10:30 AM,82.4,64.4,54,29.98,5.0,East,8.1,-,N/A,,Unknown,100,2014-02-22 03:30:00
11:00 AM,84.2,64.4,51,29.98,5.0,East,5.8,-,N/A,,Unknown,90,2014-02-22 04:00:00
11:30 AM,84.2,64.4,51,29.95,5.6,ENE,5.8,-,N/A,,Unknown,70,2014-02-22 04:30:00
12:00 PM,87.8,62.6,43,29.95,5.6,Variable,4.6,-,N/A,,Unknown,0,2014-02-22 05:00:00
12:30 PM,87.8,62.6,43,29.92,5.6,SSE,4.6,-,N/A,,Unknown,160,2014-02-22 05:30:00
1:00 PM,89.6,66.2,46,29.89,6.2,South,5.8,-,N/A,,Partly Cloudy,170,2014-02-22 06:00:00
1:30 PM,87.8,66.2,49,29.89,6.2,WSW,6.9,-,N/A,,Partly Cloudy,240,2014-02-22 06:30:00
2:00 PM,87.8,68.0,52,29.86,6.2,WSW,5.8,-,N/A,,Partly Cloudy,240,2014-02-22 07:00:00
2:30 PM,87.8,68.0,52,29.86,6.2,SW,8.1,-,N/A,,Partly Cloudy,230,2014-02-22 07:30:00
3:00 PM,87.8,69.8,55,29.83,6.2,WSW,8.1,-,N/A,,Partly Cloudy,240,2014-02-22 08:00:00
3:30 PM,89.6,69.8,52,29.83,6.2,SW,6.9,-,N/A,,Partly Cloudy,220,2014-02-22 08:30:00
4:00 PM,87.8,69.8,55,29.83,5.6,SSW,6.9,-,N/A,,Unknown,210,2014-02-22 09:00:00
4:30 PM,86.0,68.0,55,29.83,5.6,SSW,8.1,-,N/A,,Unknown,200,2014-02-22 09:30:00
5:00 PM,86.0,68.0,55,29.83,5.6,South,6.9,-,N/A,,Unknown,190,2014-02-22 10:00:00
5:30 PM,86.0,68.0,55,29.83,5.6,SSW,5.8,-,N/A,,Unknown,200,2014-02-22 10:30:00
6:00 PM,84.2,68.0,58,29.83,5.6,SSW,4.6,-,N/A,,Unknown,210,2014-02-22 11:00:00
6:30 PM,82.4,69.8,66,29.83,5.6,SSE,3.5,-,N/A,,Unknown,160,2014-02-22 11:30:00
7:00 PM,80.6,71.6,74,29.86,5.6,South,2.3,-,N/A,,Unknown,180,2014-02-22 12:00:00
7:30 PM,78.8,71.6,78,29.86,5.0,South,2.3,-,N/A,,Unknown,170,2014-02-22 12:30:00
8:00 PM,80.6,69.8,70,29.86,5.0,SE,2.3,-,N/A,,Unknown,130,2014-02-22 13:00:00
8:30 PM,78.8,71.6,78,29.86,5.0,Calm,Calm,-,N/A,,Unknown,0,2014-02-22 13:30:00
9:00 PM,80.6,71.6,74,29.89,5.0,ENE,3.5,-,N/A,,Unknown,70,2014-02-22 14:00:00
9:30 PM,78.8,69.8,74,29.89,5.0,East,2.3,-,N/A,,Unknown,90,2014-02-22 14:30:00
10:00 PM,77.0,71.6,83,29.89,5.0,NNE,2.3,-,N/A,,Unknown,30,2014-02-22 15:00:00
10:30 PM,77.0,71.6,83,29.89,5.0,North,2.3,-,N/A,,Unknown,350,2014-02-22 15:30:00
11:00 PM,77.0,71.6,83,29.89,5.0,NE,3.5,-,N/A,,Unknown,40,2014-02-22 16:00:00
11:30 PM,77.0,71.6,83,29.89,5.0,NE,6.9,-,N/A,,Unknown,40,2014-02-22 16:30:00